TimePST,TemperatureF,Dew PointF,Humidity,Sea Level PressureIn,VisibilityMPH,Wind Direction,Wind SpeedMPH,Gust SpeedMPH,PrecipitationIn,Events,Conditions,WindDirDegrees,DateUTC
12:54 AM,55.9,51.1,84,30.12,10.0,Calm,Calm,-,N/A,,Overcast,0,2014-02-16 08:54:00
1:54 AM,55.9,52.0,87,30.12,10.0,Calm,Calm,-,N/A,,Overcast,0,2014-02-16 09:54:00
2:26 AM,55.4,51.8,88,30.09,2.5,Calm,Calm,-,0.00,Rain,Light Rain,0,2014-02-16 10:26:00
2:28 AM,55.4,51.8,88,30.09,2.0,Calm,Calm,-,0.00,Rain,Light Rain,0,2014-02-16 10:28:00
2:33 AM,55.4,51.8,88,30.09,1.8,Calm,Calm,-,0.01,Rain,Light Rain,0,2014-02-16 10:33:00
2:43 AM,55.4,51.8,88,30.08,3.0,Calm,Calm,-,0.01,,Overcast,0,2014-02-16 10:43:00
2:54 AM,55.0,53.1,93,30.12,7.0,Calm,Calm,-,0.01,,Overcast,0,2014-02-16 10:54:00
3:07 AM,55.4,53.6,94,30.08,9.0,ESE,4.6,-,N/A,,Overcast,110,2014-02-16 11:07:00
3:18 AM,55.4,53.6,94,30.08,10.0,South,3.5,-,N/A,,Overcast,170,2014-02-16 11:18:00
3:31 AM,57.2,53.6,88,30.08,10.0,Calm,Calm,-,N/A,,Overcast,0,2014-02-16 11:31:00
3:38 AM,57.2,53.6,88,30.08,10.0,Calm,Calm,-,N/A,,Overcast,0,2014-02-16 11:38:00
3:54 AM,55.9,54.0,93,30.12,8.0,Calm,Calm,-,N/A,,Overcast,0,2014-02-16 11:54:00
4:19 AM,55.4,55.4,100,30.08,2.5,Calm,Calm,-,0.00,Rain,Light Rain,0,2014-02-16 12:19:00
4:54 AM,55.9,54.0,93,30.12,2.5,WSW,3.5,-,0.01,Rain,Light Rain,250,2014-02-16 12:54:00
5:06 AM,55.4,53.6,94,30.09,3.0,SW,3.5,-,0.00,,Overcast,220,2014-02-16 13:06:00
5:31 AM,55.4,53.6,94,30.10,10.0,Calm,Calm,-,0.01,,Overcast,0,2014-02-16 13:31:00
5:51 AM,55.4,53.6,94,30.11,5.0,West,8.1,-,0.01,,Overcast,260,2014-02-16 13:51:00
5:54 AM,55.0,53.1,93,30.15,5.0,WSW,4.6,-,0.01,,Overcast,240,2014-02-16 13:54:00
6:15 AM,55.4,53.6,94,30.12,10.0,Calm,Calm,-,N/A,,Overcast,0,2014-02-16 14:15:00
6:54 AM,55.0,54.0,96,30.16,6.0,Calm,Calm,-,N/A,,Overcast,0,2014-02-16 14:54:00
7:20 AM,55.4,53.6,94,30.14,2.0,Calm,Calm,-,N/A,,Overcast,0,2014-02-16 15:20:00
7:39 AM,55.4,53.6,94,30.15,1.0,NE,3.5,-,N/A,,Overcast,50,2014-02-16 15:39:00
7:54 AM,55.0,53.1,93,30.19,2.0,ENE,3.5,-,N/A,,Overcast,70,2014-02-16 15:54:00
8:09 AM,55.4,53.6,94,30.16,3.0,East,3.5,-,N/A,,Overcast,90,2014-02-16 16:09:00
8:39 AM,55.4,53.6,94,30.17,10.0,Calm,Calm,-,N/A,,Scattered Clouds,0,2014-02-16 16:39:00
8:54 AM,57.0,54.0,89,30.21,10.0,East,4.6,-,N/A,,Scattered Clouds,90,2014-02-16 16:54:00
9:54 AM,61.0,51.1,70,30.22,10.0,NNE,4.6,-,N/A,,Clear,30,2014-02-16 17:54:00
10:54 AM,60.1,50.0,69,30.22,10.0,WNW,6.9,-,N/A,,Clear,290,2014-02-16 18:54:00
11:54 AM,60.1,48.9,67,30.20,10.0,NW,6.9,-,N/A,,Clear,310,2014-02-16 19:54:00
12:54 PM,60.1,50.0,69,30.18,10.0,WNW,8.1,-,N/A,,Clear,290,2014-02-16 20:54:00
1:54 PM,60.1,46.0,60,30.17,10.0,WNW,10.4,-,N/A,,Clear,290,2014-02-16 21:54:00
2:54 PM,60.1,46.9,62,30.16,10.0,West,10.4,-,N/A,,Clear,280,2014-02-16 22:54:00
3:54 PM,59.0,48.0,67,30.14,10.0,NW,5.8,-,N/A,,Clear,310,2014-02-16 23:54:00
4:54 PM,59.0,48.0,67,30.14,10.0,Calm,Calm,-,N/A,,Clear,0,2014-02-17 00:54:00
5:54 PM,57.0,46.9,69,30.15,10.0,West,3.5,-,N/A,,Clear,270,2014-02-17 01:54:00
6:54 PM,55.9,48.0,75,30.17,10.0,SSW,3.5,-,N/A,,Clear,210,2014-02-17 02:54:00
7:54 PM,54.0,46.9,77,30.17,10.0,South,3.5,-,N/A,,Clear,190,2014-02-17 03:54:00
8:54 PM,53.1,46.9,80,30.17,10.0,SSE,3.5,-,N/A,,Clear,160,2014-02-17 04:54:00
9:54 PM,52.0,46.9,83,30.18,10.0,South,4.6,-,N/A,,Clear,170,2014-02-17 05:54:00
10:54 PM,50.0,45.0,83,30.16,10.0,East,8.1,-,N/A,,Clear,90,2014-02-17 06:54:00
11:54 PM,50.0,44.1,80,30.14,10.0,ENE,6.9,-,N/A,,Clear,70,2014-02-17 07:54:00